Location: Goll?ig?dem
(16.6773°N, 80.7332°E)
Time: 07:25:45
(UTC+00:00)

FUSE - Pass Details

Date: 19 May 2025
Orbit: 737 x 752 km, 25.0° (Epoch: 18 June)

Event Time Altitude Azimuth Distance (km) Brightness Sun altitude
Exits shadow 23:30:33 10° 256° (WSW) 2,271 5.8 -8.4°
Reaches altitude 10° 23:30:36 10° 257° (WSW) 2,252 5.8 -8.4°
Maximum altitude 23:35:56 74° 342° (NNW) 776 4.1 -7.2°
Drops below altitude 10° 23:41:18 10° 67° (ENE) 2,258 8.3 -6.1°
Sets 23:43:46 0° 69° (ENE) 3,182 10.2 -5.5°
